Tracking 29892 objects as of 21-Nov-2024
HD Live streaming from Space Station
objects crossing your sky now

FENGYUN 1C DEB

Track FENGYUN 1C DEB now!
10-day predictions


NORAD ID: 29779
Int'l Code: 1999-025BV
Perigee: 810.8 km
Apogee: 902.6 km
Inclination: 98.7 °
Period: 101.9 minutes
Semi major axis: 7227 km
RCS: 0.036 m2 (small)
Launch date: May 10, 1999
Source: People's Republic of China (PRC)
Launch site: Taiyaun Space Center, China (TSC)

Note: This is SATELLITE DEBRIS
Your satellite tracking list
Your tracking list is empty




NASA's NSSDC Master Catalog

Two Line Element Set (TLE):
1 29779U 99025BV  24325.52818309  .00000682  00000-0  38226-3 0  9991
2 29779  98.6962 342.0859 0063521 187.9356 172.0818 14.12878782919434
Source of the keplerian elements: AFSPC